Burlington, IA

7:42 AM CDT on May 24, 2018 (GMT -0500)
Burlington Regional

Weather History for KBRL - May, 2013

Change the Weather History Date:

Saturday, May 18, 2013

  Actual Average Record
Temperature  
Mean Temperature 73 °F 64 °F  
Max Temperature 83 °F 75 °F 92 °F (1998)
Min Temperature 62 °F 54 °F 35 °F (2002)
Degree Days  
Heating Degree Days 0 4  
Month to date heating degree days 111 94  
Since 1 July heating degree days 5885 5556  
Cooling Degree Days 8 3  
Month to date cooling degree days 40 32  
Year to date cooling degree days 51 52  
Growing Degree Days 22 (Base 50)    
Moisture  
Dew Point 63 °F    
Average Humidity 77    
Maximum Humidity 100    
Minimum Humidity 54    
Precipitation  
Precipitation 0.00 in 0.16 in 0.90 in (1959)
Month to date precipitation 4.49 2.87  
Year to date precipitation 16.19 12.28  
Sea Level Pressure  
Sea Level Pressure 29.93 in    
Wind  
Wind Speed 6 mph (SE)    
Max Wind Speed 10 mph    
Max Gust Speed 15 mph    
Visibility 8 miles    
Events      
T = Trace of Precipitation, MM = Missing Value Source: NWS Daily Summary

Daily Weather History Graph

Daily Weather History Graph

Search for Another Location

Airport or City:

Astronomy

May. 18, 2013 Rise Set
Actual Time 5:44 AM CDT 8:18 PM CDT
Civil Twilight 5:12 AM CDT 8:49 PM CDT
Nautical Twilight 4:33 AM CDT 9:29 PM CDT
Astronomical Twilight 3:49 AM CDT 10:13 PM CDT
Moon 1:19 PM CDT (5/18) 1:39 AM CDT (5/18)
Length of Visible Light 15h 36m
Length of Day
14h 33m
First Quarter, 55% of the Moon is Illuminated
May 18
First Quarter
May 24
Full
May 31
Last Quarter
Jun 8
New
Jun 16
First Quarter

Hourly Weather History & Observations

Time (CDT) Temp. Heat Index Dew Point Humidity Pressure Visibility Wind Dir Wind Speed Gust Speed Precip Events Conditions
12:53 AM 68.0 °F - 63.0 °F 84% 29.95 in 10.0 mi SSE 4.6 mph - N/A   Scattered Clouds
1:53 AM 64.9 °F - 62.1 °F 90% 29.95 in 9.0 mi SSE 4.6 mph - N/A   Clear
2:53 AM 64.9 °F - 63.0 °F 93% 29.96 in 8.0 mi Calm Calm - N/A   Scattered Clouds
3:53 AM 64.0 °F - 62.1 °F 93% 29.96 in 6.0 mi East 3.5 mph - N/A   Clear
4:53 AM 63.0 °F - 62.1 °F 97% 29.96 in 5.0 mi ESE 3.5 mph - N/A   Clear
5:53 AM 64.0 °F - 62.1 °F 93% 29.95 in 3.0 mi ESE 4.6 mph - N/A   Clear
6:53 AM 64.9 °F - 63.0 °F 93% 29.97 in 3.0 mi East 5.8 mph - N/A   Clear
7:36 AM 66.2 °F - 64.4 °F 94% 29.99 in 3.0 mi SE 5.8 mph - N/A   Partly Cloudy
7:53 AM 66.9 °F - 64.0 °F 90% 29.98 in 3.0 mi ESE 5.8 mph - N/A   Scattered Clouds
8:23 AM 68.0 °F - 64.4 °F 88% 30.00 in 4.0 mi SE 4.6 mph - N/A   Mostly Cloudy
8:53 AM 69.1 °F - 64.9 °F 87% 29.99 in 5.0 mi South 5.8 mph - N/A   Mostly Cloudy
9:53 AM 72.0 °F - 66.0 °F 81% 29.99 in 7.0 mi South 5.8 mph - N/A   Scattered Clouds
10:53 AM 73.0 °F - 66.0 °F 79% 29.98 in 9.0 mi South 4.6 mph - N/A   Mostly Cloudy
11:53 AM 75.0 °F - 64.9 °F 71% 29.97 in 10.0 mi South 8.1 mph - N/A   Mostly Cloudy
12:53 PM 79.0 °F - 64.0 °F 60% 29.94 in 10.0 mi SSE 8.1 mph - N/A   Mostly Cloudy
1:53 PM 80.1 °F 81.7 °F 64.0 °F 58% 29.92 in 10.0 mi South 11.5 mph - N/A   Mostly Cloudy
2:53 PM 81.0 °F 82.5 °F 64.0 °F 56% 29.92 in 10.0 mi SSE 8.1 mph - N/A   Scattered Clouds
3:53 PM 81.0 °F 82.2 °F 63.0 °F 54% 29.91 in 10.0 mi SSE 10.4 mph - N/A   Scattered Clouds
4:53 PM 81.0 °F 82.2 °F 63.0 °F 54% 29.89 in 10.0 mi SSE 8.1 mph - N/A   Overcast
5:53 PM 81.0 °F 81.9 °F 62.1 °F 52% 29.88 in 10.0 mi SSE 9.2 mph - N/A   Clear
6:53 PM 79.0 °F - 63.0 °F 58% 29.89 in 10.0 mi South 8.1 mph - N/A   Partly Cloudy
7:53 PM 77.0 °F - 62.1 °F 60% 29.88 in 10.0 mi SSE 6.9 mph - N/A   Partly Cloudy
8:53 PM 73.9 °F - 62.1 °F 66% 29.87 in 10.0 mi SE 3.5 mph - N/A   Clear
9:53 PM 72.0 °F - 62.1 °F 71% 29.86 in 10.0 mi SE 5.8 mph - N/A   Clear
10:53 PM 70.0 °F - 62.1 °F 76% 29.86 in 10.0 mi SE 5.8 mph - N/A   Clear
11:53 PM 70.0 °F - 62.1 °F 76% 29.86 in 10.0 mi SSE 5.8 mph - N/A   Clear